[[{"header":{"parameterUnit":"m.s-1","parameterCategory":1,"la1":30.2991,"la2":30.254,"lo1":-89.0895,"lo2":-89.0444,"dy":0.0017,"dx":0.0017,"nx":28,"ny":28,"refTime":"2024-04-09T03:00:00:Z","depth":0,"parameterNumber":2,"parameterNumberName":"U-component_of_WINDS"},"data":[0,0,0,0,0,0,0,0,0,0,0,0,0,0,0,0,0,0,0,0,0,0,0,0,0,0,0,0,0,0,0,0,0,0,0,0,0,0,0,0,0,0,0,0,0,0,0,0,0,0,0,0,0,0,0,0,0,0,-8.6402,-8.6402,0,-8.647,-8.647,-8.6471,-8.6368,-8.6365,-8.6361,-8.6358,-8.6421,-8.6426,-8.6431,0,0,0,0,0,0,0,0,0,0,0,0,0,-8.6178,-8.6182,-8.6402,-8.6402,-8.6403,-8.647,-8.647,-8.6471,-8.6369,-8.6365,-8.636,-8.6356,-8.642,-8.6426,-8.6432,0,0,0,0,0,0,0,0,0,0,0,0,0,-8.6263,-8.6184,-8.6401,-8.636,-8.6357,-8.6469,-8.647,-8.6472,-8.637,-8.6365,-8.6359,-8.6354,-8.6418,-8.6425,-8.6432,-8.6586,0,0,-8.6455,-8.6459,0,0,0,0,0,0,0,0,-8.6258,-8.6271,-8.6366,-8.6364,-8.636,-8.6405,-8.6415,-8.651,-8.6371,-8.6365,-8.6358,-8.6352,-8.642,-8.6427,-8.6451,-8.6589,-8.6591,-8.6456,-8.6461,-8.6464,-8.6466,0,0,0,0,0,0,0,-8.6253,-8.6268,-8.6428,-8.6367,-8.6364,-8.6337,-8.6343,-8.6432,-8.6421,-8.6365,-8.6358,-8.6368,-8.6417,-8.6444,-8.6452,-8.6592,-8.6456,-8.6462,-8.6467,-8.647,-8.6857,-8.6863,0,0,0,0,0,0,-8.6253,-8.6264,-8.6426,-8.643,-8.6295,-8.6345,-8.6352,-8.6396,-8.642,-8.6419,-8.6372,-8.6363,-8.6434,-8.6443,-8.6454,-8.6632,-8.6464,-8.6471,-8.6475,-8.6852,-8.6859,-8.6865,0,0,0,0,0,0,-8.6248,-8.6268,-8.6423,-8.6345,-8.6363,-8.6355,-8.6405,-8.64,-8.6427,-8.6426,-8.6422,-8.6402,-8.643,-8.6443,-8.6554,-8.6633,-8.6474,-8.6481,-8.6845,-8.6854,-8.6862,-8.6993,0,0,0,0,0,0,-8.6242,-8.6267,-8.6326,-8.6347,-8.6368,-8.6524,-8.641,-8.6405,-8.6441,-8.6429,-8.6453,-8.6451,-8.6427,-8.6543,-8.6561,-8.6641,-8.6487,-8.6837,-8.6849,-8.6859,-8.6981,-8.7005,-8.7025,0,0,0,0,0,-8.6235,-8.6359,-8.633,-8.635,-8.6442,-8.6529,-8.654,-8.6511,-8.6448,-8.6506,-8.6505,-8.645,-8.6623,-8.6555,-8.6575,-8.6658,-8.6832,-8.6845,-8.6858,-8.6971,-8.7,-8.7025,0,0,0,0,0,0,-8.6345,-8.6361,-8.6328,-8.6464,-8.6497,-8.6511,-8.6584,-8.6543,-8.6592,-8.6578,-8.6539,-8.6545,-8.6663,-8.6672,-8.6597,-8.6807,-8.6717,-8.6734,-8.6796,-8.6823,-8.6845,-8.6838,-8.6493,0,0,0,0,0,-8.6386,-8.6457,-8.6467,-8.6586,-8.6604,-8.6592,-8.6629,-8.6604,-8.6635,-8.6647,-8.6654,-8.6684,-8.6745,-8.6785,-8.6841,-8.6984,-8.6986,-8.7051,-8.7073,-8.7091,-8.7105,-8.7178,-8.7206,-8.6908,-8.6907,-8.6907,0,0,-8.6469,-8.6487,-8.6534,-8.6608,-8.663,-8.6703,-8.6603,-8.6685,-8.6737,-8.6658,-8.6763,-8.677,-8.6801,-8.6928,-8.6984,-8.6938,-8.7189,-8.7107,-8.7122,-8.7126,-8.7195,-8.7223,-8.7248,-8.6916,-8.6915,-8.6913,0,0,-8.6657,-8.668,-8.678,-8.6805,-8.6841,-8.6832,-8.6857,-8.6879,-8.6881,-8.6987,-8.6929,-8.6991,-8.7097,-8.712,-8.7146,-8.7348,-8.7297,-8.7367,-8.748,-8.7552,-8.7576,-8.7596,-8.7664,-8.769,-8.7382,-8.7383,-8.7383,0,-8.6755,-8.6865,-8.6837,-8.6922,-8.6956,-8.6892,-8.6991,-8.7016,-8.7068,-8.7091,-8.7041,-8.7173,-8.7189,-8.732,-8.7369,-8.7394,-8.7418,-8.7361,-8.7575,-8.7595,-8.7614,-8.7679,-8.7705,-8.739,-8.7389,-8.7389,-8.7388,0,-8.6982,-8.7059,-8.7136,-8.7189,-8.7232,-8.7325,-8.7309,-8.7355,-8.7328,-8.7325,-8.7432,-8.7451,-8.7508,-8.7539,-8.7512,-8.7666,-8.7636,-8.7582,-8.7489,-8.7651,-8.7711,-8.7736,-8.7402,-8.7399,-8.7397,-8.7395,0,0,-8.7237,-8.7277,-8.7305,-8.7328,-8.7364,-8.7421,-8.7511,-8.757,-8.7609,-8.7648,-8.772,-8.7813,-8.7763,-8.7793,-8.7769,-8.7834,-8.7988,-8.777,-8.777,-8.7807,-8.8154,-8.8192,-8.8221,-8.7958,-8.7962,-8.7966,-8.815,0,-8.7422,-8.7578,-8.7557,-8.7706,-8.7775,-8.7717,-8.7795,-8.7824,-8.7824,-8.7882,-8.7881,-8.7946,-8.7877,-8.7894,-8.7956,-8.7956,-8.8056,-8.7943,-8.802,-8.8023,-8.801,-8.8253,-8.8293,-8.8466,-8.8174,-8.8178,-8.8181,0,-8.7658,-8.7707,-8.7864,-8.7889,-8.7917,-8.7988,-8.804,-8.8097,-8.8129,-8.8124,-8.816,-8.8125,-8.8212,-8.8123,-8.8242,-8.8165,-8.8196,-8.8202,-8.8208,-8.8209,-8.8108,-8.8257,-8.8521,-8.8545,-8.8218,-8.8215,-8.8213,0,-8.7823,-8.7929,-8.8036,-8.8059,-8.8092,-8.8142,-8.8158,-8.8185,-8.8222,-8.8268,-8.8291,-8.8347,-8.8375,-8.8418,-8.8398,-8.8336,-8.852,-8.8429,-8.8515,-8.8516,-8.8552,-8.8549,-8.882,-8.8581,-8.858,-8.858,-8.8579,0,-8.8029,-8.8126,-8.8111,-8.8176,-8.8283,-8.8258,-8.8364,-8.8373,-8.8398,-8.8462,-8.8416,-8.8477,-8.845,-8.8509,-8.8494,-8.8593,-8.8607,-8.8604,-8.8598,-8.8605,-8.8605,-8.8621,-8.8607,-8.8587,-8.8585,-8.8584,-8.8583,0,-8.823,-8.8224,-8.8336,-8.836,-8.8369,-8.8446,-8.8465,-8.8525,-8.8524,-8.8606,-8.8623,-8.862,-8.8687,-8.8673,-8.8746,-8.8736,-8.8859,-8.8841,-8.8849,-8.8842,-8.8928,-8.8918,-8.9214,-8.925,-8.8992,-8.8995,-8.8997,0,-8.8359,-8.8433,-8.8466,-8.8507,-8.8527,-8.8594,-8.8632,-8.8611,-8.8652,-8.8695,-8.875,-8.8814,-8.8863,-8.8972,-8.8975,-8.903,-8.901,-8.911,-8.9017,-8.9022,-8.9006,-8.9,-8.9006,-8.9126,-8.9129,-8.9132,-8.9134,0,-8.8588,-8.8582,-8.864,-8.8698,-8.8746,-8.879,-8.8829,-8.8865,-8.8847,-8.8895,-8.8965,-8.9003,-8.9079,-8.9142,-8.9194,-8.9208,-8.9167,-8.9164,-8.9186,-8.9191,-8.9192,-8.9189,-8.8894,-8.9156,-8.9153,-8.9152,-8.9151,-8.915,-8.8754,-8.8816,-8.885,-8.8915,-8.8944,-8.8982,-8.9039,-8.9047,-8.9105,-8.9166,-8.915,-8.9228,-8.9258,-8.9324,-8.9345,-8.9404,-8.9366,-8.9399,-8.9407,-8.9414,-8.9423,-8.9187,-8.9414,-8.9413,-8.9413,-8.9412,-8.9412,0,-8.8977,-8.8997,-8.9058,-8.9116,-8.9167,-8.913,-8.9171,-8.9216,-8.9286,-8.9319,-8.9369,-8.9448,-8.951,-8.9519,-8.9576,-8.9621,-8.9604,-8.9637,-8.963,-8.9634,-8.9455,-8.9428,-8.965,-8.965,-8.965,-8.965,-8.965,-8.9649,-8.9099,-8.9202,-8.9201,-8.9317,-8.9334,-8.9412,-8.9439,-8.9473,-8.9499,-8.959,-8.9642,-8.9649,-8.9671,-8.9731,-8.9784,-8.9785,-8.9806,-8.9846,-8.9839,-8.9671,-8.9647,-8.9624,-8.9598,-8.9852,-8.9852,-9.0012,-9.0013,-9.0015]},{"header":{"parameterUnit":"m.s-1","parameterCategory":1,"la1":30.2991,"la2":30.254,"lo1":-89.0895,"lo2":-89.0444,"dy":0.0017,"dx":0.0017,"nx":28,"ny":28,"refTime":"2024-04-09T03:00:00:Z","depth":0,"parameterNumber":3,"parameterNumberName":"V-component_of_WINDS"},"data":[0,0,0,0,0,0,0,0,0,0,0,0,0,0,0,0,0,0,0,0,0,0,0,0,0,0,0,0,0,0,0,0,0,0,0,0,0,0,0,0,0,0,0,0,0,0,0,0,0,0,0,0,0,0,0,0,0,0,3.2198,3.2198,0,3.2262,3.2262,3.2263,3.2278,3.2278,3.2277,3.2277,3.2338,3.234,3.2342,0,0,0,0,0,0,0,0,0,0,0,0,0,3.2086,3.2088,3.2197,3.2198,3.2199,3.2262,3.2262,3.2263,3.2278,3.2278,3.2277,3.2277,3.2338,3.234,3.2343,0,0,0,0,0,0,0,0,0,0,0,0,0,3.214,3.2088,3.2197,3.2214,3.2216,3.2261,3.2262,3.2264,3.2278,3.2278,3.2277,3.2277,3.2337,3.234,3.2343,3.2374,0,0,3.2352,3.2354,0,0,0,0,0,0,0,0,3.2137,3.2144,3.2211,3.2213,3.2216,3.2261,3.2246,3.2301,3.2279,3.2255,3.2277,3.2276,3.2313,3.2318,3.2331,3.2377,3.238,3.2353,3.2354,3.2356,3.2357,0,0,0,0,0,0,0,3.2133,3.2142,3.2223,3.2212,3.2215,3.2218,3.2225,3.2256,3.2286,3.2257,3.2258,3.2266,3.2314,3.2328,3.2333,3.2381,3.2352,3.2355,3.2357,3.2358,3.2458,3.2458,0,0,0,0,0,0,3.2127,3.2139,3.2221,3.2225,3.2174,3.222,3.2228,3.2247,3.2286,3.2292,3.2266,3.2266,3.2323,3.2329,3.2335,3.2376,3.2356,3.2359,3.236,3.2457,3.2458,3.2459,0,0,0,0,0,0,3.2125,3.2134,3.2218,3.2182,3.2193,3.2223,3.2244,3.2249,3.2263,3.2293,3.2299,3.2275,3.2323,3.2331,3.2365,3.2378,3.236,3.2363,3.2456,3.2457,3.2458,3.2456,0,0,0,0,0,0,3.2121,3.2133,3.2146,3.2182,3.2195,3.2248,3.2245,3.2251,3.2269,3.2269,3.2303,3.2308,3.2323,3.2361,3.2368,3.2382,3.2365,3.2455,3.2456,3.2458,3.2455,3.2457,3.2458,0,0,0,0,0,3.2117,3.2141,3.2147,3.2156,3.2211,3.2249,3.2256,3.2274,3.227,3.2282,3.2302,3.2307,3.2375,3.2364,3.2373,3.2387,3.2454,3.2456,3.2458,3.2454,3.2456,3.2458,0,0,0,0,0,0,3.2104,3.2146,3.2152,3.2189,3.2216,3.2251,3.2267,3.2275,3.2302,3.2301,3.2321,3.2329,3.2362,3.2378,3.2365,3.2421,3.2415,3.2418,3.2409,3.2411,3.2413,3.2408,3.2368,0,0,0,0,0,3.2105,3.2133,3.2168,3.2197,3.221,3.2237,3.2254,3.2266,3.2293,3.2304,3.2326,3.2351,3.2379,3.2396,3.2422,3.2458,3.2465,3.2472,3.2474,3.2475,3.2478,3.2499,3.2502,3.2465,3.2465,3.2465,0,0,3.2108,3.2135,3.2151,3.2195,3.2217,3.2245,3.2246,3.2274,3.2295,3.2307,3.2342,3.2359,3.2389,3.2424,3.2441,3.2439,3.249,3.2478,3.2478,3.248,3.2501,3.2504,3.2508,3.2466,3.2466,3.2465,0,0,3.2128,3.2151,3.2178,3.2201,3.2234,3.2252,3.2259,3.2294,3.2307,3.2342,3.2353,3.2377,3.2423,3.2445,3.2461,3.2492,3.2497,3.25,3.2509,3.2529,3.2532,3.2534,3.2546,3.2549,3.2502,3.2502,3.2502,0,3.2127,3.217,3.2191,3.222,3.224,3.2254,3.2282,3.2303,3.2342,3.2355,3.2353,3.2413,3.2434,3.2475,3.2483,3.2496,3.2504,3.2495,3.253,3.2533,3.2536,3.2547,3.2551,3.2503,3.2503,3.2503,3.2503,0,3.2167,3.2197,3.2215,3.2256,3.2277,3.2305,3.233,3.235,3.236,3.2378,3.2415,3.2441,3.2474,3.2485,3.2494,3.2528,3.2525,3.2526,3.252,3.2539,3.255,3.2554,3.2503,3.2503,3.2503,3.2503,0,0,3.2178,3.2232,3.2238,3.2258,3.2297,3.232,3.2349,3.2384,3.24,3.2427,3.2452,3.2493,3.2494,3.2513,3.2526,3.2544,3.2567,3.2543,3.2544,3.2546,3.2606,3.2605,3.261,3.2572,3.2572,3.2573,3.2604,0,3.2202,3.2257,3.2278,3.2321,3.235,3.2365,3.2391,3.2417,3.2436,3.2462,3.2481,3.251,3.2509,3.2521,3.254,3.256,3.2579,3.2558,3.2594,3.2595,3.2586,3.2615,3.2614,3.2641,3.2608,3.2609,3.2609,0,3.2238,3.2268,3.2315,3.2353,3.2366,3.2389,3.2423,3.2447,3.2478,3.249,3.2513,3.2525,3.2556,3.2549,3.2592,3.2578,3.2594,3.2606,3.2608,3.2611,3.2603,3.2619,3.265,3.2654,3.2616,3.2615,3.2615,0,3.2242,3.2294,3.233,3.2346,3.2391,3.2406,3.2426,3.2456,3.2476,3.2505,3.2518,3.255,3.2567,3.2592,3.2612,3.2605,3.2653,3.2648,3.2664,3.2663,3.2672,3.2671,3.2706,3.2683,3.2683,3.2683,3.2683,0,3.2267,3.2295,3.2332,3.2354,3.2387,3.2411,3.2442,3.2462,3.2489,3.2515,3.253,3.2553,3.2579,3.2605,3.2621,3.2655,3.2662,3.2673,3.2676,3.2671,3.267,3.2681,3.268,3.2684,3.2684,3.2683,3.2683,0,3.2276,3.2302,3.2342,3.2382,3.2393,3.2415,3.2449,3.2471,3.2491,3.2523,3.2532,3.2562,3.2595,3.2618,3.2659,3.267,3.2706,3.2709,3.2696,3.2698,3.2712,3.2711,3.2756,3.2763,3.2735,3.2735,3.2735,0,3.229,3.2313,3.2356,3.2375,3.2395,3.2425,3.2447,3.2471,3.2492,3.2531,3.2548,3.2582,3.261,3.2661,3.2686,3.2718,3.2722,3.2736,3.2727,3.2722,3.2723,3.2721,3.2724,3.2737,3.2737,3.2737,3.2737,0,3.2313,3.2325,3.2356,3.2391,3.2417,3.2445,3.2474,3.2489,3.2519,3.2542,3.2576,3.2598,3.2642,3.2675,3.271,3.2729,3.2738,3.2741,3.2746,3.274,3.2732,3.2737,3.2699,3.2739,3.2739,3.2739,3.2739,3.2739,3.2325,3.2346,3.2381,3.2415,3.244,3.2467,3.249,3.2514,3.2543,3.2582,3.2595,3.263,3.2662,3.271,3.2729,3.2757,3.2756,3.2764,3.2766,3.2767,3.2767,3.2728,3.2763,3.2763,3.2763,3.2763,3.2763,0,3.2349,3.2373,3.2404,3.2445,3.2472,3.248,3.2513,3.2535,3.2567,3.2596,3.2625,3.2665,3.2698,3.2726,3.2761,3.2777,3.2783,3.2785,3.2784,3.2789,3.2766,3.2758,3.2781,3.2781,3.2781,3.2781,3.2781,3.2781,3.2364,3.2401,3.2418,3.2468,3.2491,3.2528,3.2546,3.2571,3.2595,3.264,3.2668,3.2688,3.2717,3.2754,3.2784,3.2792,3.2804,3.2806,3.2814,3.2792,3.279,3.2788,3.2781,3.2808,3.2808,3.2835,3.2835,3.2835]}]]